Location: Newark
(51.2656°N, 3.9089°E)
Time: 15:53:31
(UTC+00:00)

ISS - Pass Details

Date: 29 October 2019
Orbit: 412 x 421 km, 51.6° (Epoch: 15 November)

Event Time Altitude Azimuth Distance (km) Brightness Sun altitude
Exits shadow 05:30:10 10° 244° (WSW) 1,481 -1.5 -10.1°
Maximum altitude 05:33:28 67° 162° (SSE) 462 -3.5 -9.6°
Drops below altitude 10° 05:36:50 10° 80° (E) 1,508 0.4 -9.0°
Sets 05:38:56 0° 77° (ENE) 2,372 1.5 -8.7°
